Charlottesville, VA

4:10 PM EDT on June 26, 2017 (GMT -0400)
Charlottesville-Albemarle

Weather History for KCHO - February, 2011

Change the Weather History Date:

Wednesday, February 23, 2011

  Actual Average Record
Temperature  
Mean Temperature 34 °F 40 °F  
Max Temperature 45 °F 51 °F 78 °F (2017)
Min Temperature 22 °F 29 °F 8 °F (1907)
Degree Days  
Heating Degree Days 31 25  
Month to date heating degree days 526 629  
Since 1 July heating degree days 3164 3289  
Cooling Degree Days 0 0  
Month to date cooling degree days 1 0  
Year to date cooling degree days 1 0  
Moisture  
Dew Point 26 °F    
Average Humidity 75    
Maximum Humidity 92    
Minimum Humidity 57    
Precipitation  
Precipitation 0.00 in 0.10 in 0.96 in (1971)
Month to date precipitation 0.99 2.16  
Year to date precipitation 1.89 4.93  
Sea Level Pressure  
Sea Level Pressure 30.31 in    
Wind  
Wind Speed 1 mph (SW)    
Max Wind Speed 7 mph    
Max Gust Speed 7 mph    
Visibility 8 miles    
Events      
T = Trace of Precipitation, MM = Missing Value Source: NWS Daily Summary

Daily Weather History Graph

Daily Weather History Graph

Search for Another Location

Airport or City:

Trip Planner

Search our weather history database for the weather conditions in past years. The results will help you decide how hot, cold, wet, or windy it might be!

Date:

Astronomy

Feb. 23, 2011 Rise Set
Actual Time 6:54 AM EST 6:00 PM EST
Civil Twilight 6:27 AM EST 6:27 PM EST
Nautical Twilight 5:56 AM EST 6:58 PM EST
Astronomical Twilight 5:26 AM EST 7:28 PM EST
Moon No Moon Rise 9:47 AM EST (2/23)
Length of Visible Light 11h 59m
Length of Day
11h 06m
Waning Gibbous, 64% of the Moon is Illuminated
Feb 23
Waning Gibbous
Feb 24
Last Quarter
Mar 4
New
Mar 12
First Quarter
Mar 19
Full

Hourly Weather History & Observations

Time (EST) Temp. Windchill Dew Point Humidity Pressure Visibility Wind Dir Wind Speed Gust Speed Precip Events Conditions
12:53 AM 28.0 °F - 25.0 °F 88% 30.27 in 5.0 mi Calm Calm - N/A   Clear
1:53 AM 28.0 °F 24.2 °F 25.0 °F 88% 30.28 in 5.0 mi WSW 3.5 mph - N/A   Scattered Clouds
2:53 AM 26.6 °F - 24.8 °F 93% 30.26 in 5.0 mi Calm Calm - N/A   Clear
3:53 AM 26.1 °F - 21.9 °F 84% 30.29 in 5.0 mi Calm Calm - N/A   Clear
4:53 AM 26.1 °F - 21.0 °F 81% 30.30 in 5.0 mi Calm Calm - N/A   Haze
5:53 AM 24.1 °F - 19.9 °F 84% 30.32 in 5.0 mi Calm Calm - N/A   Clear
6:15 AM 23.0 °F - 19.4 °F 86% 30.31 in 6.0 mi Calm Calm - N/A   Scattered Clouds
6:53 AM 23.0 °F - 19.0 °F 85% 30.34 in 4.0 mi Calm Calm - N/A   Partly Cloudy
7:53 AM 28.0 °F - 25.0 °F 88% 30.36 in 6.0 mi Calm Calm - N/A   Scattered Clouds
8:53 AM 30.9 °F - 28.0 °F 89% 30.36 in 5.0 mi Calm Calm - N/A   Overcast
9:53 AM 33.1 °F - 28.0 °F 82% 30.36 in 10.0 mi Calm Calm - N/A   Mostly Cloudy
10:00 AM 33.8 °F - 28.4 °F 81% 30.35 in 10.0 mi Calm Calm - N/A   Mostly Cloudy
10:53 AM 35.1 °F 30.1 °F 28.0 °F 76% 30.37 in 10.0 mi SSW 5.8 mph - N/A   Overcast
11:53 AM 37.0 °F 31.6 °F 28.9 °F 73% 30.37 in 10.0 mi SSW 6.9 mph - N/A   Mostly Cloudy
12:53 PM 39.0 °F - 28.9 °F 67% 30.34 in 10.0 mi Calm Calm - N/A   Mostly Cloudy
1:53 PM 41.0 °F - 30.0 °F 65% 30.31 in 10.0 mi Calm Calm - N/A   Overcast
2:53 PM 43.0 °F - 30.0 °F 60% 30.30 in 10.0 mi Calm Calm - N/A   Overcast
3:53 PM 43.0 °F 40.3 °F 28.9 °F 58% 30.30 in 10.0 mi West 4.6 mph - N/A   Overcast
4:53 PM 43.0 °F - 28.9 °F 58% 30.29 in 10.0 mi Calm Calm - N/A   Overcast
5:53 PM 39.0 °F - 28.9 °F 67% 30.30 in 10.0 mi Calm Calm - N/A   Partly Cloudy
6:53 PM 37.0 °F - 28.9 °F 73% 30.31 in 10.0 mi Calm Calm - N/A   Clear
7:53 PM 34.0 °F - 28.0 °F 79% 30.31 in 10.0 mi Calm Calm - N/A   Clear
8:53 PM 33.1 °F - 28.0 °F 82% 30.30 in 10.0 mi Calm Calm - N/A   Partly Cloudy
9:53 PM 30.9 °F - 28.0 °F 89% 30.30 in 6.0 mi Calm Calm - N/A   Scattered Clouds
10:53 PM 30.2 °F - 28.4 °F 93% 30.27 in 6.0 mi Calm Calm - N/A   Clear
11:53 PM 30.9 °F - 28.0 °F 89% 30.28 in 5.0 mi Calm Calm - N/A   Partly Cloudy